Location: Goettingen
(51.5300°N, 9.9433°E)
Time: 17:41:18
(UTC+02:00)

ISS - Pass Details

Date: 25 May 2020
Orbit: 417 x 420 km, 51.6° (Epoch: 26 May)

Event Time Altitude Azimuth Distance (km) Brightness Sun altitude
Rises 22:18:51 0° 277° (W) 2,366 0.9 -7.5°
Reaches altitude 10° 22:20:57 10° 277° (W) 1,502 -0.2 -7.7°
Maximum altitude 22:24:20 86° 190° (S) 426 -3.8 -8.1°
Drops below altitude 10° 22:27:42 10° 101° (E) 1,501 -1.4 -8.4°
Enters shadow 22:28:26 - 101° (E) 1,797 -1.0 -8.5°
